Weather History for San Carlos, CA

Change the Weather History Date:

Tuesday, May 6, 2014

  Actual Average Record
Temperature  
Mean Temperature 58 °F -  
Max Temperature 66 °F 73 °F 96 °F (1987)
Min Temperature 51 °F 47 °F 38 °F (1968)
Degree Days  
Heating Degree Days 6    
Growing Degree Days 8 (Base 50)    
Moisture  
Dew Point 45 °F    
Average Humidity 64    
Maximum Humidity 77    
Minimum Humidity 37    
Precipitation  
Precipitation 0.00 in - - ()
Sea Level Pressure  
Sea Level Pressure 29.94 in    
Wind  
Wind Speed 13 mph (West)    
Max Wind Speed 23 mph    
Max Gust Speed 32 mph    
Visibility 10 miles    
Events      
Averages and records for this station are not official NWS values.
T = Trace of Precipitation, MM = Missing Value Source: NWS Daily Summary

Daily Weather History Graph

Daily Weather History Graph

Search for Another Location

Airport:

Trip Planner

Search our weather history database for the weather conditions in past years. The results will help you decide how hot, cold, wet, or windy it might be!

Date:

Astronomy

May. 06, 2014 Rise Set
Actual Time 6:08 AM PDT 8:03 PM PDT
Civil Twilight 5:39 AM PDT 8:32 PM PDT
Nautical Twilight 5:05 AM PDT 9:06 PM PDT
Astronomical Twilight 4:27 AM PDT 9:44 PM PDT
Moon 12:27 PM PDT (5/6) 1:26 AM PDT (5/6)
Length of Visible Light 14h 52m
Length of Day
13h 55m
Waxing Crescent, 47% of the Moon is Illuminated
May 6
Waxing Crescent
May 6
First Quarter
May 14
Full
May 21
Last Quarter
May 28
New

Hourly Weather History & Observations

Time (PDT) Temp. Dew Point Humidity Pressure Visibility Wind Dir Wind Speed Gust Speed Precip Events Conditions
12:15 AM 53.6 °F 46.4 °F 77% 29.98 in 10.0 mi NW 21.9 mph 32.2 mph N/A   Clear
12:35 AM 53.6 °F 46.4 °F 77% 29.97 in 10.0 mi WNW 18.4 mph 29.9 mph N/A   Partly Cloudy
12:55 AM 53.6 °F 46.4 °F 77% 29.97 in 10.0 mi WNW 23.0 mph 28.8 mph N/A   Clear
4:55 AM 51.8 °F 44.6 °F 76% 29.94 in 10.0 mi WNW 8.1 mph - N/A   Clear
5:15 AM 51.8 °F 44.6 °F 76% 29.94 in 10.0 mi WNW 9.2 mph - N/A   Clear
5:35 AM 51.8 °F 44.6 °F 76% 29.94 in 9.0 mi West 8.1 mph - N/A   Clear
5:55 AM 51.8 °F 44.6 °F 76% 29.94 in 10.0 mi West 5.8 mph - N/A   Clear
6:15 AM 51.8 °F 44.6 °F 76% 29.95 in 10.0 mi WNW 4.6 mph - N/A   Clear
7:51 AM 55.4 °F 41.0 °F 58% 29.95 in 10.0 mi Variable 4.6 mph - N/A   Scattered Clouds
8:47 AM 55.4 °F 42.8 °F 63% 29.95 in 10.0 mi Variable 3.5 mph - N/A   Partly Cloudy
9:47 AM 59.0 °F 42.8 °F 55% 29.95 in 10.0 mi Calm Calm - N/A   Partly Cloudy
10:47 AM 60.8 °F 46.4 °F 59% 29.94 in 10.0 mi ENE 3.5 mph - N/A   Partly Cloudy
11:50 AM 66.2 °F 44.6 °F 46% 29.93 in 10.0 mi WSW 9.2 mph - N/A   Partly Cloudy
12:47 PM 66.2 °F 41.0 °F 40% 29.93 in 10.0 mi WSW 9.2 mph 16.1 mph N/A   Partly Cloudy
1:47 PM 66.2 °F 39.2 °F 37% 29.92 in 10.0 mi West 13.8 mph 18.4 mph N/A   Partly Cloudy
2:57 PM 66.2 °F 44.6 °F 46% 29.92 in 10.0 mi WNW 23.0 mph 29.9 mph N/A   Partly Cloudy
3:48 PM 62.6 °F 44.6 °F 52% 29.91 in 10.0 mi West 23.0 mph 29.9 mph N/A   Partly Cloudy
4:47 PM 62.6 °F 46.4 °F 55% 29.92 in 10.0 mi West 18.4 mph 25.3 mph N/A   Partly Cloudy
5:55 PM 60.8 °F 44.6 °F 55% 29.97 in 10.0 mi West 17.3 mph 25.3 mph N/A   Partly Cloudy
6:47 PM 60.8 °F 44.6 °F 55% 29.90 in 10.0 mi West 16.1 mph 21.9 mph N/A   Partly Cloudy
7:47 PM 57.2 °F 44.6 °F 63% 29.91 in 10.0 mi West 16.1 mph - N/A   Partly Cloudy
8:56 PM 57.2 °F 44.6 °F 63% 29.91 in 10.0 mi West 13.8 mph 23.0 mph N/A   Partly Cloudy
9:15 PM 55.4 °F 44.6 °F 67% 29.92 in 10.0 mi West 8.1 mph - N/A   Clear
9:35 PM 55.4 °F 44.6 °F 67% 29.93 in 10.0 mi WSW 6.9 mph - N/A   Clear
9:55 PM 55.4 °F 44.6 °F 67% 29.93 in 10.0 mi West 9.2 mph - N/A   Clear
10:15 PM 55.4 °F 44.6 °F 67% 29.93 in 10.0 mi West 8.1 mph 16.1 mph N/A   Clear
10:35 PM 55.4 °F 44.6 °F 67% 29.93 in 10.0 mi West 12.7 mph - N/A   Clear
10:55 PM 53.6 °F 44.6 °F 72% 29.94 in 10.0 mi West 11.5 mph - N/A   Clear
11:15 PM 53.6 °F 46.4 °F 77% 29.94 in 10.0 mi West 9.2 mph - N/A   Mostly Cloudy
11:35 PM 53.6 °F 46.4 °F 77% 29.94 in 10.0 mi WSW 8.1 mph - N/A   Overcast
11:55 PM 53.6 °F 46.4 °F 77% 29.94 in 10.0 mi WSW 9.2 mph - N/A   Overcast